Location: Lobstick
(53.6000°N, 115.1667°W)
Time: 09:40:14
(UTC+00:00)

Gurwin Techsat 1B - Pass Details

Date: 06 December 2023
Orbit: 810 x 813 km, 98.9° (Epoch: 21 February)

Event Time Altitude Azimuth Distance (km) Brightness Sun altitude
Rises 11:14:08 0° 16° (NNE) 3,351 12.2 -38.1°
Reaches altitude 10° 11:16:29 10° 17° (NNE) 2,416 11.3 -37.8°
Enters shadow 11:16:59 13° 18° (NNE) 2,218 11.1 -37.7°
